Regional Weather Roundup
Issued by NWS Grand Forks, ND

Home | Current Version | Previous Version | Text Only | Print | Product List | Glossary On
Versions: 1 2 3 4 5 6 7 8 9 10 11 12 13 14 15 16 17 18 19 20 21 22 23 24 25 26 27 28 29 30 31 32 33 34 35 36 37 38 39 40 41 42 43 44 45 46 47 48 49 50
000
ASUS43 KFGF 012110
RWRFGF
PRAIRIE TO PINES  WEATHER ROUNDUP
NATIONAL WEATHER SERVICE EASTERN NORTH DAKOTA/GRAND FORKS ND
400 PM CDT SAT OCT 01 2016

 **SATELLITE DATA USED TO AUGMENT SKY COVER AT AUTOMATED STATIONS**
 *****  WEATHER ACROSS EASTERN NORTH DAKOTA  *****

CITY           SKY/WX    TMP DP  RH WIND       PRES   REMARKS
GRAND FORKS    PTSUNNY   72  52  49 SE15      30.06F
GRAND FRKS AFB MOSUNNY   71  55  56 SE12      30.06F
GRAND FRKS NWS   N/A     68 N/A N/A SE10        N/A
DEVILS LAKE    SUNNY     73  50  44 SE14G22   30.03F
FARGO          MOSUNNY   74  53  48 SE12      30.06F
WAHPETON ARPT  CLEAR     73  48  40 SE12G17   30.06F
$$

 ***** WEATHER ACROSS CENTRAL AND WESTERN NORTH DAKOTA  *****

CITY           SKY/WX    TMP DP  RH WIND       PRES   REMARKS
BISMARCK       SUNNY     77  50  38 S15G23    29.95F
MINOT          SUNNY     75  52  44 SE8       29.94F
JAMESTOWN      SUNNY     71  50  47 SE13      30.02F
MINOT AFB      SUNNY     74  53  47 SE10      29.93F
GARRISON         N/A     75  52  44 S8        29.94F
WILLISTON      SUNNY     76  53  44 E7        29.91S
DICKINSON      SUNNY     77  51  40 SE5       29.91F
HETTINGER      SUNNY     80  51  36 SE5       29.94F
$$

 *****  OTHER AIRPORT OBSERVATIONS IN OUR AREA  *****

CITY           SKY/WX    TMP DP  RH WIND       PRES   REMARKS
WALHALLA       FAIR      68  64  88 SE9       30.07F
GRAFTON AIRPOR FAIR      70  54  56 SE12      30.09S
VALLEY CITY AR FAIR      72  54  53 S14       30.06F
CANDO          FAIR      73  48  40 SE16G23   30.04F
CAVALIER APRT  FAIR      68  55  64 SE7       30.07F
GWINNER        FAIR      75  54  46 SE16      30.05S
ROLLA            N/A     70  46  43 SE18G25   30.03F
 ***** THE ABOVE OBSERVATIONS ARE NON NWS ARE NOT QUALITY
       CONTROLLED AND MAY MIS-REPORT RAIN FOR SNOW...
$$

  *****  WEATHER ACROSS NORTHERN MINNESOTA  *****

CITY           SKY/WX    TMP DP  RH WIND       PRES   REMARKS
FLAG ISLAND    CLOUDY    59  54  82 CALM      30.13F
WARROAD        SUNNY     63  55  77 NE7       30.14F
ROSEAU         SUNNY     68  57  68 E8        30.12S
HALLOCK        PTSUNNY   70  54  56 S9        30.08F
THF RVR FALLS  CLOUDY    68  54  60 E12       30.11F
BAUDETTE       CLOUDY    65  54  67 CALM      30.14F
WASKISH        CLOUDY    66  55  68 CALM      30.13F HAZE
CROOKSTON      CLOUDY    70  54  56 S9        30.08F
$$
  *****  WEATHER ACROSS CENTRAL AND WEST MINNESOTA  *****

CITY           SKY/WX    TMP DP  RH WIND       PRES   REMARKS
FOSSTON        CLOUDY    72  54  53 E6        30.11S
BEMIDJI        CLOUDY    67  53  59 E5        30.13S
PARK RAPIDS    SUNNY     71  49  45 VRB7      30.11F
ELBOW LAKE     FAIR      72  54  54 SE8       30.09F
WADENA         SUNNY     70  54  56 SE9       30.10F
DETROIT LAKES  MOSUNNY   68  52  56 SE9       30.12S
MOORHEAD       MOSUNNY   72  54  53 S12       30.07F
FERGUS FALLS   MOSUNNY   72  54  53 SE9       30.09F
MORRIS MN      SUNNY     75  52  43 E9        30.07F
STAPLES        SUNNY     70  52  52 E3        30.11F
$$
  *****  WEATHER ELSEWHERE ACROSS MINNESOTA  *****

CITY           SKY/WX    TMP DP  RH WIND       PRES   REMARKS
DULUTH         MOSUNNY   67  49  52 E9        30.14F
INTRNTL FALLS  CLOUDY    67  52  58 E8        30.14F
ELY            SUNNY     70  41  35 E5        30.14F
CLOQUET        SUNNY     64  46  52 E9        30.14F
WHEATON        NOT AVBL
BRAINERD       PTSUNNY   69  55  60 SE7       30.12F
HIBBING        SUNNY     69  49  48 S6        30.14F
ALEXANDRIA     SUNNY     70  53  54 E6        30.11F
SAINT CLOUD    SUNNY     70  56  61 E9        30.10F
MINNEAPOLIS    MOSUNNY   72  54  53 NE8       30.08F
$$

  *****  WEATHER ACROSS SOUTH DAKOTA  *****

CITY           SKY/WX    TMP DP  RH WIND       PRES   REMARKS
SIOUX FALLS    CLOUDY    70  54  56 S5        30.08S
BROOKINGS      MOSUNNY   69  54  58 E8        30.07F
WATERTOWN      MOSUNNY   71  54  54 S9        30.06F
HURON          SUNNY     75  50  41 S16G22    30.02F
SISSETON         N/A     75  54  47 SE12      30.04F
ABERDEEN       MOSUNNY   75  47  36 S16       30.02F
MITCHELL       MOSUNNY   72  49  44 SE14      30.04F
PIERRE         SUNNY     79  49  34 SE16G29   29.94F
MOBRIDGE       SUNNY     79  48  33 SE16      29.94F
RAPID CITY     SUNNY     81  49  32 SE9       29.94F
$$

  *****  SOME WEATHER IN NEARBY STATES *****

CITY           SKY/WX    TMP DP  RH WIND       PRES   REMARKS
GLASGOW MT     SUNNY     79  54  41 SE10G18   29.84F
GREAT FALLS MT CLOUDY    74  44  34 W6        29.87F
CHEYENNE WY    CLOUDY    74  38  27 S10       30.10F
SCOTTSBLUFF NE SUNNY     81  45  28 CALM      29.99F
OMAHA NE       CLOUDY    68  56  65 NW6       30.07F
DES MOINES IA  CLOUDY    66  58  75 W5        30.05S
DAVENPORT IA   CLOUDY    68  57  68 CALM      30.01S
CHICAGO IL     LGT RAIN  61  59  93 N9        29.97S
EAU CLAIRE WI  SUNNY     71  51  49 NE5       30.07F
LA CROSSE WI   PTSUNNY   72  54  53 VRB5      30.05F
$$

  *****  SOME NATIONAL WEATHER *****

CITY           SKY/WX    TMP DP  RH WIND       PRES   REMARKS
LA GUARDIA NY  CLOUDY    64  57  78 NE16      30.15F
RALEIGH NC     PTSUNNY   82  57  42 W10       30.03S
ATLANTA GA     MOSUNNY   79  50  36 VRB5      30.05S
NEW ORLEANS LA MOSUNNY   86  54  33 N6        30.02F
OKLAHOMA CITY  MOSUNNY   78  51  38 SE6       30.04F
ALBUQUERQUE NM PTSUNNY   76  44  32 SW3       30.14F
SALT LAKE CITY PTSUNNY   80  45  28 S22G29    29.97F
LOS ANGELES CA MOSUNNY   76  62  62 W9        29.95F
BOISE ID       SUNNY     71  27  19 W10       30.00F
SEATTLE WA     CLOUDY    56  50  80 S6        29.96S
$$

*** WEATHER ACROSS MANITOBA...SASKATCHEWAN AND ONTARIO ***
                ***ONTARIO***

CITY           SKY/WX    TMP DP  RH WIND       PRES   REMARKS
GERALDTON      MOSUNNY   70  39  32 VRB6      30.17F
THUNDER BAY    MOSUNNY   68  48  49 E6        30.15S
SIOUX LOOKOUT  PTSUNNY   66  48  52 VRB2      30.17F
TORONTO        DRIZZLE   57  57 100 E8        30.08S
BIG TROUT LK   SUNNY     63  52  67 S3        30.16F
PICKLE LAKE    PTSUNNY   66  45  45 SW6       30.19S
DRYDEN         PTSUNNY   64  50  59 CALM      30.17F
KENORA         MOSUNNY   66  46  48 S7        30.15F
$$
                *** MANITOBA***

CITY           SKY/WX    TMP DP  RH WIND       PRES   REMARKS
BRANDON        MOSUNNY   73  48  40 SE16G26   30.00F
DAUPHIN        SUNNY     73  54  49 SE15G21   29.99S
ISLAND LAKE    PTSUNNY   64  55  72 E3        30.12S
PILOT MOUND      N/A     72  46  40 S17G24      N/A
THE PAS        CLOUDY    54  50  87 NE5       30.08S
THOMPSON       CLOUDY    45  43  93 NE10      30.20R
WINNIPEG       MOSUNNY   72  50  46 SE14      30.08S
LYNN LAKE      CLOUDY    43  41  93 NE12G17   30.25R
CHURCHILL      CLOUDY    41  36  81 NE9       30.42R
GILLAM         CLOUDY    46  39  76 NE14G22   30.24R
$$
                ***SASKATCHEWAN***

CITY           SKY/WX    TMP DP  RH WIND       PRES   REMARKS
ESTEVAN        SUNNY     72  52  49 SE13      29.94S
KINDERSLEY     CLOUDY    57  52  82 E12G17    29.86F
LLOYDMINSTER   TSTM      48  48 100 E18G29    29.88F
PRINCE ALBERT  CLOUDY    54  50  87 E14       30.00S
REGINA         SUNNY     73  52  46 SE17G24   29.91F
YORKTON        SUNNY     73  50  43 SE13G18   29.96F
N. BATTLEFORD  CLOUDY    54  54 100 E18G24    29.94F
LA RONGE       CLOUDY    48  45  87 NE16G22   30.12S
SASKATOON      PTSUNNY   61  54  77 E15G21    29.94F
SWIFT CURRENT  MOSUNNY   77  52  41 SE20G25   29.83F
$$
NOTE: THESE ARE AUTOMATED STATIONS WITH LIMITED QUALITY CONTROL
      "FAIR" INDICATES FEW OR NO CLOUDS BELOW 12,000 FEET WITH NO
      SIGNIFICANT WEATHER AND/OR OBSTRUCTIONS TO VISIBILITY.
      SKY/WX - SKY CONDITION AND SIGNIFICANT WEATHER.
      TMP - AIR TEMPERATURE.    DP   - DEWPOINT TEMPERATURE.
      RH  - RELATIVE HUMIDITY.  PRES - PRESSURE.
      HX  - HEAT INDEX.         WCI  - WIND CHILL INDEX.
$




USA.gov is the U.S. government's official web portal to all federal, state and local government web resources and services.